{"data":{"norad_id":64281,"intl_designator":"2025-120AB","name":"STARLINK-34366","alt_names":[],"object_type":"PAYLOAD","status":"ACTIVE","operator":null,"country":"US","launch_date":"2025-06-04","launch_site_code":"AFWTR","launch_vehicle":null,"mission":null,"orbit_class":"UNKNOWN","rcs_meters":null,"size_class":null,"mass_kg":null,"dimensions":null,"purposes":["comms"],"wikipedia_slug":null,"has_3d_model":false,"image_url":null,"decayed_at":null,"tle_current":{"epoch":"2026-05-25T03:46:58.912320Z","epoch_age_seconds":64602,"freshness":"FRESH","line1":"1 64281U 25120AB  26145.15762630  .00035156  00000+0  11915-2 0  9997","line2":"2 64281  53.1564 121.5073 0001052  92.2167 267.8954 15.30254217 55574","mean_motion":15.30254217,"eccentricity":0.0001052,"inclination_deg":53.1564,"raan_deg":121.5073,"arg_perigee_deg":92.2167,"mean_anomaly_deg":267.8954,"bstar":0.0011915,"rev_number":5557,"period_min":94.10201154832,"perigee_km":474.3322364014,"apogee_km":475.7741476178,"semimajor_km":6853.1901920096,"source":"CELESTRAK","updated_at":"2026-05-25T13:38:20.363637Z"}}}